IU1DOF-3 Weather Reports


Display with metric or nautical units.
time (UTC)temp
F
wind
direction
speed
MPH
gust
MPH
rain 1hr
in
rain 24hr
in
rain mn
in
humidity
%
barometer
mb
20260505082740 49 298 0.0 1.0 0.00 0.00 0.69 93 1011.7
20260505081716 49 298 0.0 0.0 0.00 0.00 0.69 97 1011.4
20260505080652 48 298 0.0 2.0 0.00 0.00 0.69 98 1011.5
20260505075640 49 300 0.0 0.0 0.00 0.00 0.69 99 1011.4
20260505074622 47 300 1.0 2.0 0.00 0.00 0.69 99 1011.6
20260505073556 47 301 0.0 0.0 0.00 0.00 0.69 99 1011.7
20260505072540 46 301 0.0 0.0 0.00 0.00 0.69 99 1011.6
20260505071524 45 301 0.0 0.0 0.00 0.00 0.69 99 1011.7
20260505070501 46 301 0.0 1.0 0.00 0.00 0.69 99 1011.9
20260505065440 45 301 0.0 0.0 0.00 0.00 0.69 99 1011.6
20260505064428 44 301 0.0 0.0 0.00 0.00 0.69 99 1011.9
20260505063405 45 301 0.0 0.0 0.00 0.00 0.69 99 1011.7
20260505062341 44 301 0.0 0.0 0.00 0.00 0.69 99 1011.7
20260505061316 44 301 0.0 0.0 0.00 0.00 0.69 99 1011.7
20260505060253 44 301 0.0 0.0 0.00 0.00 0.69 99 1011.8
20260505055240 45 301 0.0 0.0 0.00 0.00 0.69 99 1011.5
20260505054220 44 301 0.0 0.0 0.00 0.00 0.69 99 1011.3
20260505053156 44 301 0.0 0.0 0.00 0.00 0.69 99 1011.6
20260505052140 44 301 0.0 0.0 0.00 0.00 0.69 99 1011.5
20260505051124 43 301 0.0 0.0 0.00 0.00 0.69 99 1011.5
20260505040916 43 301 0.0 0.0 0.00 0.00 0.69 99 1011.8
20260505035852 43 301 0.0 0.0 0.00 0.00 0.69 99 1012.1
20260505034841 43 302 1.0 2.0 0.04 0.00 0.69 99 1012.0
20260505033820 43 301 0.0 0.0 0.00 0.00 0.68 99 1012.0
20260505032756 43 301 0.0 1.0 0.07 0.00 0.68 99 1012.3
20260505031740 45 300 1.0 1.0 0.11 0.00 0.67 99 1012.5
20260505030724 45 300 0.0 0.0 0.35 0.00 0.65 99 1012.4
20260505025701 46 299 0.0 0.0 0.78 0.00 0.59 99 1012.2
20260505024640 46 300 0.0 1.0 0.54 0.00 0.46 99 1012.8
20260505023628 47 300 1.0 1.0 0.30 0.00 0.37 99 1013.0
20260505022604 47 299 0.0 0.0 0.30 0.00 0.31 99 1012.9
20260505021543 47 299 0.0 0.0 0.23 0.00 0.28 99 1012.9
20260505020532 47 300 0.0 0.0 0.26 0.00 0.24 99 1012.9
20260505015524 47 300 0.0 0.0 0.11 0.00 0.19 99 1012.9
20260505014500 47 299 0.0 0.0 0.04 0.00 0.17 99 1012.9
20260505013436 47 300 0.0 0.0 0.07 0.00 0.16 99 1012.8
20260505012412 47 300 0.0 0.0 0.11 0.00 0.15 99 1012.9
20260505011404 47 300 0.0 0.0 0.23 0.00 0.13 99 1012.9
20260505010356 47 299 0.0 0.0 0.18 0.00 0.09 99 1013.1
20260505005333 47 299 0.0 0.0 0.11 0.00 0.06 99 1013.2
20260505004324 47 299 0.0 0.0 0.11 0.00 0.04 99 1013.4
20260505003316 47 299 0.0 0.0 0.04 0.00 0.02 99 1013.3
20260505002308 47 299 0.0 0.0 0.07 0.00 0.02 99 1013.3
20260505001300 47 299 0.0 0.0 0.07 0.00 0.02 99 1013.5
20260505000252 47 299 0.0 0.0 0.00 0.00 0.00 99 1013.7
20260504235241 47 299 0.0 0.0 0.00 0.00 0.00 99 1014.1
20260504234204 47 299 0.0 0.0 0.04 0.00 0.00 99 1014.2
20260504233141 47 299 0.0 0.0 0.00 0.00 0.00 99 1014.3
20260504232132 47 299 0.0 0.0 0.00 0.00 0.00 99 1014.3
20260504231124 47 299 0.0 0.0 0.00 0.00 0.00 99 1014.6
20260504230116 47 299 0.0 0.0 0.07 0.00 0.00 99 1014.8
20260504225108 47 299 0.0 0.0 0.00 0.00 0.31 99 1015.0
20260504224100 47 299 0.0 0.0 0.07 0.00 0.31 99 1015.0
20260504223036 48 299 1.0 2.0 0.11 0.00 0.29 99 1014.9
20260504222028 48 298 1.0 2.0 0.04 0.00 0.28 99 1015.1
20260504221005 48 299 0.0 0.0 0.07 0.00 0.27 99 1015.2
20260504215956 48 299 0.0 0.0 0.11 0.00 0.26 99 1015.3
20260504214948 48 299 0.0 1.0 0.00 0.00 0.24 99 1015.4
20260504212932 48 300 0.0 0.0 0.04 0.00 0.24 99 1015.2
20260504211909 48 300 0.0 0.0 0.00 0.00 0.23 99 1015.4
20260504210900 48 300 0.0 0.0 0.00 0.00 0.23 99 1015.7
20260504205852 48 300 0.0 0.0 0.07 0.00 0.23 99 1015.3
20260504204840 48 300 0.0 0.0 0.04 0.00 0.22 99 1015.4
20260504203821 48 300 0.0 0.0 0.07 0.00 0.21 99 1015.7
20260504202757 48 300 0.0 0.0 0.00 0.00 0.20 99 1015.6
20260504201733 48 300 0.0 0.0 0.00 0.00 0.20 99 1015.4
20260504200709 48 300 0.0 0.0 0.04 0.00 0.20 99 1015.6
20260504195645 48 299 1.0 1.0 0.00 0.00 0.19 99 1015.5
20260504194636 48 300 2.0 3.0 0.18 0.00 0.19 99 1015.5
20260504193628 48 299 1.0 2.0 0.23 0.00 0.16 99 1015.6
20260504192620 48 300 1.0 2.0 0.16 0.00 0.13 99 1015.4
20260504191557 50 300 0.0 0.0 0.07 0.00 0.10 99 1015.2
20260504190540 50 300 0.0 0.0 0.00 0.00 0.09 99 1015.3
20260504185525 50 300 0.0 0.0 0.04 0.00 0.09 99 1015.2
20260504184501 50 300 0.0 0.0 0.00 0.00 0.08 99 1015.2
20260504183437 50 300 0.0 0.0 0.00 0.00 0.08 99 1015.2
20260504182428 50 300 0.0 0.0 0.07 0.00 0.08 99 1015.3
20260504181405 50 300 0.0 0.0 0.04 0.00 0.07 99 1015.4
20260504180356 50 300 0.0 0.0 0.00 0.00 0.06 99 1015.2
20260504175340 50 300 0.0 0.0 0.07 0.00 0.06 98 1015.2
20260504174325 51 300 0.0 0.0 0.07 0.00 0.05 98 1015.0
20260504173301 51 300 0.0 0.0 0.00 0.00 0.03 97 1015.2
20260504172241 51 300 1.0 2.0 0.04 0.00 0.03 96 1015.2
20260504171228 51 300 1.0 2.0 0.07 0.00 0.03 96 1015.1
20260504170204 51 300 2.0 3.0 0.04 0.00 0.02 94 1015.2
20260504150901 56 298 4.0 5.0 0.00 0.00 0.00 74 1015.1
20260504140652 61 301 2.0 2.0 0.00 0.00 0.00 63 1015.2
20260504130501 59 301 1.0 3.0 0.00 0.00 0.00 68 1015.7
20260504120253 56 301 2.0 4.0 0.00 0.00 0.00 76 1016.2